Time,TemperatureF,DewpointF,PressureIn,WindDirection,WindDirectionDegrees,WindSpeedMPH,WindSpeedGustMPH,Humidity,HourlyPrecipIn,Conditions,Clouds,dailyrainin,SolarRadiationWatts/m^2,SoftwareType,DateUTC
2013-04-01 00:03:00,45.0,42.0,-100.00,SW,236,8.0,16.0,89,0.00,,,0.35,0.000000,,2013-04-01 04:03:00,
2013-04-01 00:14:00,45.0,42.0,-100.00,SW,236,8.0,16.0,89,0.00,,,0.35,0.000000,,2013-04-01 04:14:00,
2013-04-01 00:44:00,44.0,42.0,-100.00,SW,221,8.0,13.0,92,0.00,,,0.35,0.000000,,2013-04-01 04:44:00,
2013-04-01 00:53:00,44.0,42.0,-100.00,SW,221,8.0,13.0,92,0.00,,,0.35,0.000000,,2013-04-01 04:53:00,
2013-04-01 01:03:00,44.0,42.0,-100.00,SW,221,8.0,13.0,92,0.00,,,0.35,0.000000,,2013-04-01 05:03:00,
2013-04-01 01:13:00,44.0,42.0,-100.00,SW,221,8.0,13.0,92,0.00,,,0.35,0.000000,,2013-04-01 05:13:00,
2013-04-01 01:43:00,43.0,41.0,-100.00,SW,227,7.0,12.0,93,0.00,,,0.35,0.000000,,2013-04-01 05:43:00,
2013-04-01 01:53:00,43.0,41.0,-100.00,SW,227,7.0,12.0,93,0.00,,,0.35,0.000000,,2013-04-01 05:53:00,
2013-04-01 02:02:00,43.0,41.0,-100.00,SW,227,7.0,12.0,93,0.00,,,0.35,0.000000,,2013-04-01 06:02:00,
2013-04-01 02:13:00,43.0,41.0,-100.00,SW,227,7.0,12.0,93,0.00,,,0.35,0.000000,,2013-04-01 06:13:00,
2013-04-01 02:43:00,44.0,42.0,-100.00,SW,223,8.0,12.0,93,0.00,,,0.35,0.000000,,2013-04-01 06:43:00,
2013-04-01 02:53:00,44.0,42.0,-100.00,SW,223,8.0,12.0,93,0.00,,,0.35,0.000000,,2013-04-01 06:53:00,
2013-04-01 03:03:00,44.0,42.0,-100.00,SW,223,8.0,12.0,93,0.00,,,0.35,0.000000,,2013-04-01 07:03:00,
2013-04-01 03:13:00,44.0,42.0,-100.00,SW,223,8.0,12.0,93,0.00,,,0.35,0.000000,,2013-04-01 07:13:00,
2013-04-01 03:43:00,44.0,42.0,-100.00,SSW,213,10.0,15.0,92,0.00,,,0.35,0.000000,,2013-04-01 07:43:00,
2013-04-01 03:53:00,44.0,42.0,-100.00,SSW,213,10.0,15.0,92,0.00,,,0.35,0.000000,,2013-04-01 07:53:00,
2013-04-01 04:03:00,44.0,42.0,-100.00,SSW,213,10.0,15.0,92,0.00,,,0.35,0.000000,,2013-04-01 08:03:00,
2013-04-01 04:12:00,44.0,42.0,-100.00,SSW,213,10.0,15.0,92,0.00,,,0.35,0.000000,,2013-04-01 08:12:00,
2013-04-01 04:43:00,44.0,42.0,-100.00,SW,232,8.0,16.0,92,0.00,,,0.35,0.000000,,2013-04-01 08:43:00,
2013-04-01 04:53:00,44.0,42.0,-100.00,SW,232,8.0,16.0,92,0.00,,,0.35,0.000000,,2013-04-01 08:53:00,
2013-04-01 05:02:00,44.0,42.0,-100.00,SW,232,8.0,16.0,92,0.00,,,0.35,0.000000,,2013-04-01 09:02:00,
2013-04-01 05:12:00,44.0,42.0,-100.00,SW,232,8.0,16.0,92,0.00,,,0.35,0.000000,,2013-04-01 09:12:00,
2013-04-01 05:43:00,44.0,42.0,-100.00,SW,236,9.0,14.0,92,0.00,,,0.35,0.000000,,2013-04-01 09:43:00,
2013-04-01 05:54:00,44.0,42.0,-100.00,SW,236,9.0,14.0,92,0.00,,,0.35,0.000000,,2013-04-01 09:54:00,
2013-04-01 06:03:00,44.0,42.0,-100.00,SW,236,9.0,14.0,92,0.00,,,0.35,0.000000,,2013-04-01 10:03:00,
2013-04-01 06:13:00,44.0,42.0,-100.00,SW,236,9.0,14.0,92,0.00,,,0.35,0.000000,,2013-04-01 10:13:00,
2013-04-01 06:43:00,44.0,41.0,-100.00,SW,228,10.0,17.0,90,0.00,,,-99.99,0.000000,,2013-04-01 10:43:00,
2013-04-01 06:53:00,44.0,41.0,-100.00,SW,228,10.0,17.0,90,0.00,,,-99.99,0.000000,,2013-04-01 10:53:00,
2013-04-01 07:03:00,44.0,41.0,-100.00,SW,228,10.0,17.0,90,0.00,,,-99.99,0.000000,,2013-04-01 11:03:00,
2013-04-01 07:13:00,44.0,41.0,-100.00,SW,228,10.0,17.0,90,0.00,,,-99.99,0.000000,,2013-04-01 11:13:00,
2013-04-01 07:43:00,44.0,41.0,-100.00,WSW,241,10.0,18.0,88,0.00,,,0.35,0.000000,,2013-04-01 11:43:00,
2013-04-01 07:53:00,44.0,41.0,-100.00,WSW,241,10.0,18.0,88,0.00,,,0.35,0.000000,,2013-04-01 11:53:00,
2013-04-01 08:03:00,44.0,41.0,-100.00,WSW,241,10.0,18.0,88,0.00,,,0.35,0.000000,,2013-04-01 12:03:00,
2013-04-01 08:12:00,44.0,41.0,-100.00,WSW,241,10.0,18.0,88,0.00,,,0.35,0.000000,,2013-04-01 12:12:00,
2013-04-01 08:43:00,44.0,40.0,-100.00,West,263,12.0,21.0,85,0.00,,,0.33,12.000000,,2013-04-01 12:43:00,
2013-04-01 08:53:00,44.0,40.0,-100.00,West,263,12.0,21.0,85,0.00,,,0.33,12.000000,,2013-04-01 12:53:00,
2013-04-01 09:03:00,44.0,40.0,-100.00,West,263,12.0,21.0,85,0.00,,,0.33,12.000000,,2013-04-01 13:03:00,
2013-04-01 09:12:00,44.0,40.0,-100.00,West,263,12.0,21.0,85,0.00,,,0.33,12.000000,,2013-04-01 13:12:00,
2013-04-01 09:43:00,45.0,38.0,-100.00,West,272,11.0,17.0,76,0.00,,,0.29,120.000000,,2013-04-01 13:43:00,
2013-04-01 09:53:00,45.0,38.0,-100.00,West,272,11.0,17.0,76,0.00,,,0.29,120.000000,,2013-04-01 13:53:00,
2013-04-01 10:04:00,45.0,38.0,-100.00,West,272,11.0,17.0,76,0.00,,,0.29,120.000000,,2013-04-01 14:04:00,
2013-04-01 10:12:00,45.0,38.0,-100.00,West,272,11.0,17.0,76,0.00,,,0.29,120.000000,,2013-04-01 14:12:00,
2013-04-01 10:43:00,45.0,37.0,-100.00,West,267,12.0,20.0,74,0.01,,,0.26,226.000000,,2013-04-01 14:43:00,
2013-04-01 10:53:00,45.0,37.0,-100.00,West,267,12.0,20.0,74,0.01,,,0.26,226.000000,,2013-04-01 14:53:00,
2013-04-01 11:03:00,45.0,37.0,-100.00,West,267,12.0,20.0,74,0.01,,,0.26,226.000000,,2013-04-01 15:03:00,
2013-04-01 11:13:00,45.0,37.0,-100.00,West,267,12.0,20.0,74,0.01,,,0.26,226.000000,,2013-04-01 15:13:00,
2013-04-01 11:44:00,40.0,31.0,-100.00,West,279,13.0,25.0,69,0.00,,,0.23,133.000000,,2013-04-01 15:44:00,
2013-04-01 11:54:00,40.0,31.0,-100.00,West,279,13.0,25.0,69,0.00,,,0.23,133.000000,,2013-04-01 15:54:00,
2013-04-01 12:03:00,40.0,31.0,-100.00,West,279,13.0,25.0,69,0.00,,,0.23,133.000000,,2013-04-01 16:03:00,
2013-04-01 12:13:00,40.0,31.0,-100.00,West,279,13.0,25.0,69,0.00,,,0.23,133.000000,,2013-04-01 16:13:00,
2013-04-01 13:42:00,35.0,31.0,-100.00,West,279,12.0,20.0,85,-99.99,,,0.25,153.000000,,2013-04-01 17:42:00,
2013-04-01 13:53:00,35.0,31.0,-100.00,West,279,12.0,20.0,85,-99.99,,,0.25,153.000000,,2013-04-01 17:53:00,
2013-04-01 14:03:00,35.0,31.0,-100.00,West,279,12.0,20.0,85,-99.99,,,0.25,153.000000,,2013-04-01 18:03:00,
2013-04-01 14:12:00,35.0,31.0,-100.00,West,279,12.0,20.0,85,-99.99,,,0.25,153.000000,,2013-04-01 18:12:00,
2013-04-01 14:43:00,40.0,35.0,-100.00,SW,231,8.0,18.0,81,0.01,,,0.23,342.000000,,2013-04-01 18:43:00,
2013-04-01 14:54:00,40.0,35.0,-100.00,SW,231,8.0,18.0,81,0.01,,,0.23,342.000000,,2013-04-01 18:54:00,
2013-04-01 15:04:00,40.0,35.0,-100.00,SW,231,8.0,18.0,81,0.01,,,0.23,342.000000,,2013-04-01 19:04:00,
2013-04-01 15:13:00,40.0,35.0,-100.00,SW,231,8.0,18.0,81,0.01,,,0.23,342.000000,,2013-04-01 19:13:00,
2013-04-01 15:43:00,38.0,31.0,-100.00,NW,312,8.0,17.0,77,0.00,,,0.22,217.000000,,2013-04-01 19:43:00,
2013-04-01 15:53:00,38.0,31.0,-100.00,NW,312,8.0,17.0,77,0.00,,,0.22,217.000000,,2013-04-01 19:53:00,
2013-04-01 16:02:00,38.0,31.0,-100.00,NW,312,8.0,17.0,77,0.00,,,0.22,217.000000,,2013-04-01 20:02:00,
2013-04-01 16:13:00,38.0,31.0,-100.00,NW,312,8.0,17.0,77,0.00,,,0.22,217.000000,,2013-04-01 20:13:00,
2013-04-01 16:43:00,39.0,30.0,-100.00,West,267,11.0,19.0,71,0.00,,,0.22,411.000000,,2013-04-01 20:43:00,
2013-04-01 16:52:00,39.0,30.0,-100.00,West,267,11.0,19.0,71,0.00,,,0.22,411.000000,,2013-04-01 20:52:00,
2013-04-01 17:03:00,39.0,30.0,-100.00,West,267,11.0,19.0,71,0.00,,,0.22,411.000000,,2013-04-01 21:03:00,
2013-04-01 17:12:00,39.0,30.0,-100.00,West,267,11.0,19.0,71,0.00,,,0.22,411.000000,,2013-04-01 21:12:00,
2013-04-01 17:44:00,42.0,24.0,-100.00,West,267,11.0,22.0,48,0.00,,,0.19,304.000000,,2013-04-01 21:44:00,
2013-04-01 17:53:00,42.0,24.0,-100.00,West,267,11.0,22.0,48,0.00,,,0.19,304.000000,,2013-04-01 21:53:00,
2013-04-01 18:03:00,42.0,24.0,-100.00,West,267,11.0,22.0,48,0.00,,,0.19,304.000000,,2013-04-01 22:03:00,
2013-04-01 18:13:00,42.0,24.0,-100.00,West,267,11.0,22.0,48,0.00,,,0.19,304.000000,,2013-04-01 22:13:00,
2013-04-01 18:43:00,40.0,18.0,-100.00,West,274,10.0,25.0,40,0.00,,,0.09,176.000000,,2013-04-01 22:43:00,
2013-04-01 18:52:00,40.0,18.0,-100.00,West,274,10.0,25.0,40,0.00,,,0.09,176.000000,,2013-04-01 22:52:00,
2013-04-01 19:02:00,40.0,18.0,-100.00,West,274,10.0,25.0,40,0.00,,,0.09,176.000000,,2013-04-01 23:02:00,
2013-04-01 19:12:00,40.0,18.0,-100.00,West,274,10.0,25.0,40,0.00,,,0.09,176.000000,,2013-04-01 23:12:00,
2013-04-01 19:43:00,39.0,13.0,-100.00,WNW,282,12.0,21.0,34,0.00,,,0.07,68.000000,,2013-04-01 23:43:00,
2013-04-01 19:53:00,39.0,13.0,-100.00,WNW,282,12.0,21.0,34,0.00,,,0.07,68.000000,,2013-04-01 23:53:00,
2013-04-01 20:03:00,39.0,13.0,-100.00,WNW,282,12.0,21.0,34,0.00,,,0.07,68.000000,,2013-04-02 00:03:00,
2013-04-01 20:12:00,39.0,13.0,-100.00,WNW,282,12.0,21.0,34,0.00,,,0.07,68.000000,,2013-04-02 00:12:00,
2013-04-01 20:43:00,37.0,11.0,-100.00,WNW,286,9.0,19.0,33,0.00,,,0.07,11.000000,,2013-04-02 00:43:00,
2013-04-01 20:53:00,37.0,11.0,-100.00,WNW,286,9.0,19.0,33,0.00,,,0.07,11.000000,,2013-04-02 00:53:00,
2013-04-01 21:03:00,37.0,11.0,-100.00,WNW,286,9.0,19.0,33,0.00,,,0.07,11.000000,,2013-04-02 01:03:00,
2013-04-01 21:12:00,37.0,11.0,-100.00,WNW,286,9.0,19.0,33,0.00,,,0.07,11.000000,,2013-04-02 01:12:00,
2013-04-01 21:43:00,35.0,9.0,-100.00,WNW,290,7.0,18.0,34,0.00,,,0.07,0.000000,,2013-04-02 01:43:00,
2013-04-01 21:53:00,35.0,9.0,-100.00,WNW,290,7.0,18.0,34,0.00,,,0.07,0.000000,,2013-04-02 01:53:00,
2013-04-01 22:03:00,35.0,9.0,-100.00,WNW,290,7.0,18.0,34,0.00,,,0.07,0.000000,,2013-04-02 02:03:00,
2013-04-01 22:12:00,35.0,9.0,-100.00,WNW,290,7.0,18.0,34,0.00,,,0.07,0.000000,,2013-04-02 02:12:00,
2013-04-01 22:43:00,33.0,10.0,-100.00,West,281,8.0,13.0,38,0.00,,,0.07,0.000000,,2013-04-02 02:43:00,
2013-04-01 22:53:00,33.0,10.0,-100.00,West,281,8.0,13.0,38,0.00,,,0.07,0.000000,,2013-04-02 02:53:00,
2013-04-01 23:02:00,33.0,10.0,-100.00,West,281,8.0,13.0,38,0.00,,,0.07,0.000000,,2013-04-02 03:02:00,
2013-04-01 23:13:00,33.0,10.0,-100.00,West,281,8.0,13.0,38,0.00,,,0.07,0.000000,,2013-04-02 03:13:00,
2013-04-01 23:43:00,32.0,11.0,-100.00,West,270,7.0,12.0,41,0.00,,,0.07,0.000000,,2013-04-02 03:43:00,
2013-04-01 23:53:00,32.0,11.0,-100.00,West,270,7.0,12.0,41,0.00,,,0.07,0.000000,,2013-04-02 03:53:00,